Theta_e
296 290 286 291 293 292 293 292 291 294 298 298 297 298 300 300 302 303 306 308 311 315 321 325 328 331 332 332 333 334 334 335 335 331 329 328 328 332 332 333 333 333 333 333
289 285 291 294 294 293 290 289 291 295 297 297 296 296 300 301 302 304 304 306 308 312 316 322 325 327 330 332 333 334 334 335 335 334 333 334 333 333 333 334 334 335 335 334
285 288 292 291 291 290 291 288 288 291 295 296 294 294 296 300 302 302 303 305 307 309 312 316 321 325 327 328 331 332 334 335 334 334 334 332 331 329 330 331 333 334 334 333
287 291 288 288 289 291 287 293 291 290 290 288 293 286 293 298 299 298 302 303 304 306 307 312 312 319 325 327 329 331 332 333 334 335 333 330 329 328 330 331 333 333 333 333
286 287 288 287 289 293 289 294 292 291 290 289 289 288 292 293 294 298 300 301 303 304 306 306 306 309 311 319 325 328 329 330 331 333 332 331 330 331 332 330 330 330 331 331
288 291 290 291 292 293 295 292 291 291 290 284 289 288 289 293 294 296 294 297 298 300 301 300 301 303 304 306 309 316 324 326 328 329 330 329 329 329 328 328 327 329 329 329
286 287 291 291 288 293 292 289 281 280 281 280 284 285 290 295 294 292 292 293 295 296 298 299 301 303 305 307 308 307 312 311 318 327 327 328 328 328 326 326 326 326 327 328
282 279 287 291 289 288 288 289 283 275 277 281 283 283 289 291 292 292 293 296 297 298 299 300 301 303 306 309 311 312 311 309 307 308 312 317 320 322 322 323 323 323 324 326
281 281 288 290 291 292 288 285 288 281 274 281 285 286 290 290 290 290 293 296 296 298 300 300 301 303 305 308 312 313 313 313 314 313 312 311 311 312 313 313 315 318 320 320
284 281 286 289 291 290 289 291 283 283 276 276 279 281 286 286 287 289 292 294 295 297 298 299 299 300 301 302 303 303 306 308 309 311 312 311 311 312 314 315 314 315 316 317
288 285 283 288 286 286 286 286 285 285 282 277 276 282 287 287 289 290 293 295 296 296 297 297 297 298 299 300 301 301 301 302 302 303 303 303 303 305 307 308 309 309 311 311
290 285 281 283 287 288 288 286 287 282 279 280 279 283 288 289 289 291 292 293 294 295 296 296 297 298 299 299 299 299 300 300 301 302 302 302 302 303 303 303 304 306 306 307
290 284 279 280 284 286 286 287 285 285 284 280 280 283 288 288 289 291 293 293 293 294 294 295 297 297 298 299 299 299 300 299 300 301 301 300 300 301 301 301 302 303 303 303
292 287 282 279 281 285 283 286 286 285 283 282 282 284 287 287 288 290 293 294 293 294 294 295 296 297 298 298 298 299 299 300 299 299 299 299 298 299 299 300 300 301 301 301
286 283 285 285 286 285 285 285 286 284 286 282 285 284 287 288 289 291 294 293 292 292 293 294 295 296 297 297 298 298 298 298 299 298 297 296 297 297 297 297 297 298 298 299
289 283 284 282 286 286 283 286 286 286 286 285 284 284 288 289 291 291 292 292 292 292 293 294 294 294 295 296 298 297 298 298 298 297 295 295 295 295 295 295 295 296 296 296
285 283 281 279 282 283 280 283 285 286 287 286 283 288 288 288 290 291 292 292 293 294 294 295 295 295 295 296 297 297 296 296 296 295 294 294 294 294 293 293 293 293 294 295
282 283 281 278 278 275 282 284 285 286 287 288 288 289 289 291 293 293 294 294 293 294 294 294 295 296 297 297 296 295 295 295 294 293 293 292 291 292 292 292 292 292 292 292
286 284 280 277 277 280 283 282 284 284 285 289 289 290 290 291 292 291 293 294 294 294 294 295 296 296 296 295 294 294 294 294 293 292 291 291 290 290 290 290 290 290 291 291
285 286 282 278 275 273 282 284 285 286 279 285 289 290 289 290 287 289 290 292 292 293 294 294 294 294 294 292 293 293 292 292 292 291 290 289 289 288 289 289 289 289 290 288
279 281 278 278 276 280 284 284 285 277 280 286 288 289 288 287 288 289 290 289 290 291 292 292 292 292 292 291 291 291 291 291 291 288 286 286 286 285 287 287 287 287 287 287
278 278 278 277 275 274 284 284 280 284 286 286 287 288 287 288 288 287 288 288 288 289 289 291 291 290 290 290 289 290 290 289 287 285 283 283 283 284 284 284 286 285 286 286
277 282 280 281 281 285 286 284 286 287 287 287 288 288 288 288 288 288 287 287 287 287 288 288 289 288 289 288 288 288 288 285 282 281 280 281 281 282 282 284 284 285 285 285
281 284 282 281 284 285 287 287 287 287 287 287 287 287 287 287 287 287 286 286 287 287 287 285 285 285 286 286 283 285 282 280 278 281 280 280 280 282 281 282 283 284 284 284
282 282 280 280 283 284 286 286 288 287 287 287 286 286 286 286 286 285 285 284 285 285 284 284 284 284 284 284 283 281 279 277 279 279 279 281 281 281 281 281 283 282 283 283
282 282 280 280 285 285 285 287 287 287 286 286 285 285 284 285 285 284 284 284 283 283 283 282 283 281 283 282 282 279 276 275 278 281 281 281 281 280 279 280 281 281 283 283
Wind_Speed
9 9 12 18 14 16 6 8 15 13 5 10 17 14 15 5 5 7 10 10 11 12 8 11 14 15 15 15 17 17 16 15 12 9 8 7 8 8 8 9 12 12 11 11
1 12 15 17 15 13 16 10 6 5 4 8 8 11 13 11 12 11 10 8 10 9 10 12 13 15 17 16 16 16 16 15 13 10 9 7 7 8 8 8 10 13 13 12
12 5 10 17 16 14 15 14 11 6 7 4 4 11 9 9 13 8 9 9 7 9 11 11 13 15 15 16 16 15 16 16 15 14 9 7 4 2 4 8 9 10 12 11
12 10 8 14 20 16 14 11 14 11 7 6 2 6 7 14 13 10 12 10 11 8 7 7 10 12 13 13 12 13 14 14 13 15 11 13 9 9 8 8 7 7 10 11
4 9 12 15 19 14 5 7 14 13 8 5 4 5 8 2 10 15 14 11 11 7 5 7 5 5 3 6 9 10 11 11 11 12 12 10 11 7 6 4 6 6 6 8
6 9 8 5 6 13 5 4 4 4 7 9 10 8 5 5 6 2 0 3 3 6 6 6 6 5 5 5 5 6 9 8 8 9 11 10 10 8 6 5 5 5 5 5
5 3 6 2 6 7 9 12 5 5 7 8 1 7 11 3 2 2 2 2 1 3 6 6 9 7 6 7 7 7 8 6 5 7 7 6 7 7 6 3 4 5 5 5
2 4 5 5 8 8 16 14 3 6 6 7 2 7 4 2 2 1 3 4 4 5 6 7 5 7 6 6 8 10 9 9 7 6 6 4 4 2 2 2 4 4 4 5
1 3 4 3 2 4 8 9 3 5 1 3 5 3 9 3 1 3 4 6 6 7 7 8 7 7 8 7 7 10 12 11 9 8 6 6 4 4 3 1 1 1 2 3
1 0 4 4 2 2 4 6 5 1 5 5 3 4 5 3 4 5 5 7 8 8 9 9 8 9 7 8 8 9 7 11 9 9 7 6 6 6 5 4 5 4 4 3
2 4 3 6 2 2 3 5 1 2 3 3 2 2 3 1 2 8 7 7 9 10 9 9 9 8 8 8 8 9 9 8 8 7 6 6 6 6 5 5 5 5 4 5
2 2 1 3 2 3 4 3 10 8 5 1 2 2 3 4 2 7 8 7 8 8 8 8 9 9 9 9 9 9 7 9 8 7 6 7 7 6 6 6 6 6 6 6
1 2 1 1 3 3 6 4 3 2 2 6 6 3 4 3 4 7 11 9 8 8 8 8 8 8 8 8 8 8 8 8 7 7 8 7 7 7 7 6 6 6 6 6
1 3 5 3 2 1 5 7 6 8 8 6 6 4 2 2 5 7 10 9 9 8 8 7 7 7 6 6 7 7 8 7 8 8 8 8 7 7 6 6 6 6 6 5
3 4 6 9 5 4 4 7 11 12 14 10 9 4 3 3 6 7 9 8 8 7 6 6 7 6 6 6 7 7 7 6 6 8 8 7 6 6 7 7 7 6 6 5
3 4 5 2 4 5 5 7 9 13 10 10 2 3 1 2 8 9 10 9 7 6 6 6 6 5 4 5 6 6 6 6 6 8 8 6 6 6 6 5 5 5 5 5
4 5 5 3 7 7 7 7 11 7 9 8 11 7 8 7 9 11 9 7 7 8 8 6 5 4 4 5 5 7 6 5 6 7 6 6 6 6 6 5 4 5 5 5
4 4 1 4 4 5 2 3 5 10 3 6 3 6 11 11 8 7 5 8 8 5 4 4 5 6 6 6 6 6 5 5 6 7 7 6 6 6 6 7 7 7 5 6
7 3 2 2 3 7 1 3 1 3 5 5 4 4 4 8 6 4 3 1 2 3 4 5 6 6 7 6 5 6 6 6 5 4 4 4 5 6 7 7 8 7 6 6
4 3 3 1 4 4 1 3 3 4 1 2 6 4 6 7 8 4 4 5 7 7 6 7 7 6 6 4 4 4 3 2 2 1 2 3 4 5 6 6 7 5 6 7
2 2 6 5 4 7 3 2 2 2 2 1 3 4 4 2 3 4 4 6 5 5 6 5 5 5 4 4 3 4 3 3 1 2 1 2 3 3 4 4 4 5 5 5
5 4 4 2 3 6 5 1 1 1 2 3 3 4 6 5 5 5 5 5 5 4 2 2 3 3 3 4 4 4 4 1 3 1 1 2 2 2 2 3 3 2 3 3
4 4 2 5 2 2 1 2 5 4 2 2 3 3 3 4 2 3 2 1 3 2 3 2 3 3 3 4 4 4 2 3 2 1 2 2 2 2 2 3 4 3 3 3
5 4 3 1 1 3 2 2 2 2 1 1 3 2 2 2 1 3 4 4 4 4 4 2 3 5 5 2 3 3 3 3 3 3 2 2 3 2 2 2 2 2 2 2
1 4 3 4 6 4 6 6 5 4 2 2 3 2 2 3 3 2 4 4 4 4 4 2 4 5 7 3 4 5 5 4 4 4 3 4 3 3 2 2 2 2 2 2
6 6 5 5 4 3 2 0 4 6 4 3 3 1 2 1 4 3 5 4 3 6 4 4 4 4 6 5 6 5 5 6 5 5 3 2 2 2 2 2 2 2 2 2
Wind_Direction
214 230 224 228 237 245 326 244 242 237 229 218 227 220 228 201 201 244 239 233 228 229 215 200 201 202 201 201 200 204 200 200 194 197 195 206 211 214 216 222 221 221 223 221
248 236 234 255 219 233 251 269 265 256 241 224 235 238 236 220 236 222 239 242 236 217 209 197 199 199 204 202 203 203 203 201 199 194 200 209 207 223 223 222 225 226 225 225
241 237 301 229 221 220 234 236 252 278 327 225 259 245 225 229 240 250 232 239 250 239 216 202 198 201 199 204 201 203 202 200 198 201 198 197 190 196 208 227 233 230 229 228
255 221 197 236 224 208 223 216 230 252 285 249 256 258 195 227 225 223 237 220 227 230 232 216 196 202 202 206 202 203 202 201 202 198 197 201 210 223 225 229 231 225 225 225
239 190 204 206 220 209 236 204 207 217 252 291 198 248 243 169 231 234 229 223 220 212 204 172 145 140 142 185 195 195 196 197 196 197 204 211 221 229 236 230 240 237 231 232
264 300 222 209 197 206 195 159 131 203 229 248 231 247 217 206 238 220 66 219 214 197 155 130 117 112 104 110 125 153 182 181 188 202 209 217 223 228 219 228 246 245 246 237
178 211 215 176 191 184 206 184 140 177 207 241 57 222 255 209 174 5 330 85 72 153 158 156 144 131 119 110 108 112 127 126 159 195 201 213 231 238 248 247 265 268 260 233
180 180 195 160 234 192 194 205 198 182 194 197 117 228 231 59 38 146 65 96 98 110 124 127 104 107 109 112 114 112 108 101 103 120 123 132 155 177 239 243 261 257 262 283
2 69 339 274 273 214 177 214 25 100 66 201 194 228 277 296 159 122 127 119 106 107 106 105 100 101 106 90 94 114 109 98 90 92 96 93 96 103 106 107 221 260 303 320
54 101 356 312 277 55 249 145 196 261 165 207 188 261 239 194 186 159 151 132 117 112 110 105 98 95 89 91 84 64 67 104 102 92 85 78 68 59 48 61 55 42 17 13
6 332 63 310 289 263 169 199 184 264 308 283 189 197 37 44 193 171 147 134 127 124 120 113 107 99 98 94 90 84 81 80 82 81 77 69 64 53 58 57 52 30 27 15
338 325 177 229 242 281 291 282 225 227 194 211 312 246 6 298 231 155 137 134 121 115 113 109 110 111 105 99 92 93 96 85 80 90 90 71 59 50 50 44 36 26 25 20
284 232 207 159 228 216 237 195 228 209 355 211 232 197 21 45 154 149 142 142 137 125 121 116 112 107 108 103 99 95 88 86 82 81 79 74 62 56 49 41 33 30 20 18
250 254 240 255 330 323 205 211 209 218 230 219 244 285 30 90 152 152 149 146 144 139 134 122 114 104 97 89 88 89 84 82 86 81 75 67 55 53 50 42 37 30 21 19
31 286 238 253 312 286 290 232 213 221 236 232 241 230 14 165 164 162 154 151 151 149 144 135 127 115 115 114 111 108 100 101 105 93 81 70 62 51 43 37 33 30 26 16
5 321 321 249 305 284 265 261 250 241 252 249 168 223 273 140 140 161 171 171 170 164 146 133 133 133 130 130 117 107 96 87 90 84 78 66 60 54 44 36 30 32 23 16
325 325 349 321 343 318 273 245 227 228 219 233 227 231 158 166 170 173 176 180 162 147 147 147 155 143 121 113 113 95 89 90 86 90 80 57 37 32 16 1 15 23 11 0
283 305 344 303 312 236 54 194 287 250 234 203 202 185 191 175 152 139 158 159 150 149 166 159 140 125 116 109 104 113 112 95 74 57 46 32 14 1 352 352 358 353 350 350
218 282 253 276 276 300 241 55 260 234 203 219 183 184 193 152 133 97 49 61 126 125 119 125 129 123 124 121 124 112 81 70 68 58 38 15 2 343 342 342 341 336 330 330
195 235 279 151 273 266 290 76 314 309 181 273 220 165 136 146 182 123 64 93 91 94 110 120 118 123 126 117 114 108 120 146 168 141 33 352 337 321 319 327 325 324 322 316
183 191 238 243 262 293 332 344 352 312 358 10 138 128 128 105 45 112 128 100 99 102 108 113 119 131 144 160 161 176 184 219 146 106 5 317 315 303 309 315 310 308 312 307
197 206 202 149 222 252 3 13 321 6 351 22 60 90 104 106 130 117 119 117 99 88 100 146 160 195 197 195 191 206 220 138 118 89 352 325 317 308 298 286 293 299 325 317
246 230 313 222 266 141 299 333 338 350 47 10 21 56 98 100 94 134 115 40 4 344 306 257 238 260 254 228 218 229 210 136 131 184 232 266 294 300 314 319 333 328 344 346
233 188 226 277 8 270 288 265 235 279 39 64 76 84 75 78 68 310 327 329 328 333 318 347 322 281 268 234 225 218 168 164 166 212 230 246 248 241 236 233 238 253 265 283
212 162 174 264 277 279 253 219 190 181 130 81 46 31 18 356 320 318 302 296 284 289 279 250 260 251 259 272 233 201 199 187 212 221 223 226 237 244 265 257 278 291 291 293
193 185 204 242 223 239 238 318 153 171 175 160 183 207 44 345 278 283 287 295 312 305 308 303 282 272 278 252 238 209 199 200 215 223 208 216 238 241 256 254 225 239 16 48